Starlink 4714

operational
NORAD ID: 53704 Int'l Des: 2022-107 Owner: SPXS Country: US Constellation: starlink
LEOCIRCULAR

Starlink 4714について

説明を読み込み中...

リアルタイム位置

3D地球を読み込み中...

次回通過

高度履歴

Altitude vs Time

uPlot chart will show altitude changes over time

軌道要素

1 53704U 22107E 26035.72485891 .00000574 00000-0 54140-4 0 9995
2 53704 53.2189 32.3614 0001244 91.1505 268.9630 15.08845226189711
Epoch: Feb 4, 2026 • Age: 11 hours

現在のステータス

高度 553.7 km
速度 7.58 km/s
衛星直下点 -40.25°S, 151.66°E
打ち上げ日 Sep 5, 2022
運用期間 3.4 years
タイプ internet

技術仕様

分類 Payload
質量 305.00 kg
乾燥質量 290.00 kg
総質量 305.00 kg
長さ 0.20 m
直径 2.80 m
スパン 9.00 m
形状 Box + pan
製造者 SPXS
バスタイプ Starlink
フェーズステータス In Orbit
所有者/国 SPXS/US

大規模コンステレーション

Loading constellations...